USA 253

Last updated on Oct. 20, 2020, 5:51 a.m. UTC

1 40099U 14043A   20293.03214259  .00000104  00000-0  00000+0 0  9990
2 40099   0.0767 117.2627 0004926  91.5305 244.9788  1.00084468  7330
UTC
Height (km)
Latitude
Longitude
Inclination
Orbital Period
UTC large
Height (km)
Speed (km/s)
/
Latitude / Longitude
Inclination (degrees)
Orbital Period (minutes)
Azimuth
Elevation
Range (km)
Doppler Factor
iOS Compass Heading
iOS Angle

Next 30 passes for location: Hong Kong

Rise time Rise Azimuth (degrees) Set time Set Azimuth (degrees) Duration Max altitude (degrees)

No matching passes for this satellites